Weather in Energetik

Russia / Orenburg Oblast     51°44′32″N   58°47′51″E
temp.,
°C
wind,
m/s
gust,
m/s
humid.,
%
clouds,
%
prec.,
mm/h
press.,
hPa
HPBL,
m
7 march, sun
sun723:00−6s2288100 0.0 101322
02:00−6ene2297100 0.6 101178
05:00−6ene4896100 2.1 1008276
08:00−5nne3496100 1.7 1004118
11:00−6n579699 2.8 1003263
14:00−5nnw6994100 2.0 1004545
17:00−5nnw5894100 2.6 1006627
20:00−9nw61380100 0.3 1010323
8 march, mon
mon823:00−15wnw5108650 0.3 1014152
02:00−17wnw46900 0.0 101582
05:00−17wsw34910 0.0 101748
08:00−15sw5119168 0.0 1016276
11:00−11sw8138684 0.0 1016516
14:00−6sw101785100 0.0 10141108
17:00−5sw101786100 0.1 10131119
20:00−5sw81689100 0.1 1013901
9 march, tue
tue923:00−5sw81688100 0.1 1014702
02:00−7sw7168889 0.0 1014526
05:00−9ssw7158877 0.0 1013412
08:00−9ssw7158891 0.0 1013367
11:00−6ssw7138796 0.0 1012522
14:00−4ssw8138799 0.0 1012655
17:00−3sw71190100 0.1 1010772
20:00−5ssw4994100 0.1 1009259
10 march, wed
wed1023:00−5s4996100 0.1 1008298
02:00−5ssw51095100 0.4 1005415
05:00−5ssw61294100 0.9 1003544
08:00−10w7148983 0.1 1004349
11:00−9w8148342 0.1 1006647
14:00−8w9128223 0.0 1008762
17:00−10w7128428 0.0 1010657
20:00−15w5109050 0.0 1012184
11 march, thu
thu1123:00−18w5109126 0.0 1014155
02:00−19w499365 0.0 1015154
05:00−21w489345 0.0 1016115
08:00−23wnw47930 0.0 1018107
11:00−19wnw58870 0.0 1019290
14:00−16w58830 0.0 1020516
17:00−16w610810 0.0 1021480
20:00−21w611890 0.0 1024184